Weather in Krasnyy Yar

Russia / Volgograd Oblast     50°37′00″N   45°46′23″E
temp.,
°C
wind,
m/s
gust,
m/s
humid.,
%
clouds,
%
prec.,
mm/h
press.,
hPa
HPBL,
m
25 february, thu
thu2500:00−21wnw227898 0.0 104027
03:00−22w127496 0.0 103920
06:00−19sw2278100 0.0 103756
09:00−16sw3777100 0.0 1035272
12:00−13ssw71194100 0.6 1033488
15:00−10ssw81294100 1.4 1029673
18:00−10sw81493100 1.1 1025604
21:00−9sw81494100 1.9 1022532
26 february, fri
fri2600:00−6sw71392100 0.8 1018454
03:00−2w61293100 1.2 1017391
06:00+1wnw41096100 0.0 1015267
09:00+1wnw5999100 0.0 1016329
12:00+1w35100100 0.0 1016142
15:00+1wsw41099100 0.1 1015224
18:00+2wsw71298100 0.1 1013229
21:00+2w81597100 0.1 1011454
27 february, sat
sat2700:00+3w81694100 0.1 1009459
03:00+2w71594100 0.2 1008468
06:00+2w51293100 0.0 1007411
09:00+1w51193100 0.0 1007545
12:00+1wsw51198100 0.0 1006503
15:00+1w61197100 0.1 1006501
18:000w5119394 0.1 1005372
21:000w5119482 0.1 1006474
28 february, sun
sun2800:000w6129689 0.1 1005479
03:00−1w6139188 0.3 1006390
06:00−6nw5108546 0.0 1008418
09:00−7nnw698434 0.0 1010518
12:00−7nnw57830 0.0 1012511
15:00−7nnw578322 0.0 1013542
18:00−9nnw488855 0.0 1015398
21:00−10nnw389040 0.0 1018382
1 march, mon
mon100:00−11nnw47890 0.0 1019304
03:00−12nnw36890 0.0 1020229
06:00−13nnw48890 0.0 1022283
09:00−12nnw47840 0.0 1024412
12:00−10nnw46814 0.0 1025537
15:00−9nnw578221 0.0 1026553
18:00−11nnw498949 0.0 1027349
21:00−12nw249124 0.0 1029118